Regional Weather Roundup
Issued by NWS

Home | Current Version | Previous Version | Text Only | Print | Product List | Glossary Off
Versions: 1 2 3 4 5 6 7 8 9 10 11 12 13 14 15 16 17 18 19 20 21 22 23 24 25 26 27 28 29 30 31 32 33 34 35 36 37 38 39 40 41 42 43 44 45 46 47 48 49 50

122
ASUS44 KLIX 050210
RWRLA
LOUISIANA WEATHER ROUNDUP
NATIONAL WEATHER SERVICE NEW ORLEANS LA
800 PM CST WED MAR 04 2015

NOTE: "FAIR" INDICATES FEW OR NO CLOUDS BELOW 12,000 FEET WITH NO
      SIGNIFICANT WEATHER AND/OR OBSTRUCTIONS TO VISIBILITY.
      SKY/WX - SKY CONDITION AND SIGNIFICANT WEATHER.
      TMP - AIR TEMPERATURE.    DP   - DEWPOINT TEMPERATURE.
      RH  - RELATIVE HUMIDITY.  PRES - PRESSURE.
      HX  - HEAT INDEX.         WCI  - WIND CHILL INDEX.

*  THESE STATIONS ARE NOT NWS OR FAA STATIONS AND ARE NOT UNDER
   NWS QUALITY CONTROL.

LAZ040-048-061>063-065-066-069-050300-
SOUTHEAST LOUISIANA

CITY           SKY/WX    TMP DP  RH WIND       PRES   REMARKS
N.O. AUDUBON     N/A     73  73 100 MISG        N/A
N.O. INTL ARPT PTCLDY    73  68  84 S10       29.92R
N.O. LAKEFRONT PTCLDY    76  68  76 S12       29.93R
SLIDELL        CLOUDY    72  69  90 S5        29.92R
BATON ROUGE    CLOUDY    75  67  76 S10       29.89R
BOOTHVILLE     PTCLDY    71  70  96 S7        29.95R
BELLE CHASSE   MOCLDY    73  68  84 S6        29.92R
BOGALUSA*        N/A     76  66  71 S9        29.92R
GALLIANO*      PTCLDY    75  71  86 S12G17    29.93R
NEW ROADS*     CLOUDY    74  68  80 S10       29.89R
GONZALES*      CLOUDY    73  71  92 S3        29.90R
HAMMOND*       CLEAR     72  64  78 S5        29.92R
HOUMA*         MOCLDY    73  71  93 S6        29.92R
PORT FOURCHON* MOCLDY    73  72  94 S5        29.97R FOG

$$

LAZ041-044-053-054-050300-
SOUTHWEST LOUISIANA

CITY           SKY/WX    TMP DP  RH WIND       PRES   REMARKS
LAKE CHARLES   CLOUDY    72  69  90 S7        29.88R
LAFAYETTE      CLOUDY    73  70  90 S10       29.90R
PATTERSON      PTCLDY    72  70  94 S12       29.91R
SALT POINT       N/A     68  67  96 S6        29.88R
NEW IBERIA     MOCLDY    72  70  94 SW7       29.90R
CHENAULT AIRPK CLOUDY    72  70  94 S8        29.89R

$$

LAZ027-028-050300-
CENTRAL LOUISIANA

CITY           SKY/WX    TMP DP  RH WIND       PRES   REMARKS
FORT POLK      CLOUDY    72  66  82 S7        29.86R
ALEXANDRIA INT CLOUDY    73  67  81 S6        29.85R
ALEXANDRIA     MOCLDY    73  68  84 S7        29.87R

$$

LAZ001-002-050300-
NORTHWEST LOUISIANA

CITY           SKY/WX    TMP DP  RH WIND       PRES   REMARKS
SHREVEPORT     LGT RAIN  44  41  89 NE21G29   30.00R FOG
BARKSDALE AFB  CLOUDY    42  39  88 NE15G21   30.02R
DTN SHREVEPORT LGT RAIN  42  38  85 N14G23    30.02R FOG

$$

LAZ014-016-050300-
NORTHEAST LOUISIANA

CITY           SKY/WX    TMP DP  RH WIND       PRES   REMARKS
MONROE         CLOUDY    42  38  85 NE15G22   30.02R
TALLULAH       LGT RAIN  41  39  93 N20       29.99R

$$




USA.gov is the U.S. government's official web portal to all federal, state and local government web resources and services.